Torna al catalogo

NANCHANG HANGKONG 2

AttivoScienzaSSO
NORAD 64051·PAYLOAD·🇨🇳 China
Questo nome del satellite non è ancora stato confermato da fonti ufficiali.

Lanciato May 17, 2025 da Jiuquan Satellite Launch Center

Loading…

Prossimi Passaggi (prossime 24 ore)

TLE

AggiornatoSource: Space-Track

Epoca: Sep 14, 2026, 12:51 UTC

1 64051U 25103D   26257.53542296  .00003197  00000-0  15347-3 0  9998
2 64051  97.3748 326.6371 0002850 318.9824  41.1196 15.19564303 73564

Traccia NANCHANG HANGKONG 2 in tempo reale con AllMySat

Download on the App Store